#timestamp,LO_Frequency,Hit,StdDev 
1545782415.5,286047001.5,N
1545782435.4,286047002.6,N
1545782455.2,286047003.9,Y
1545782475.0,286047000.3,P
1545782475.9,286047000.3,N
1545782495.8,286047002.7,P
1545782515.6,286047000.3,N
1545782535.4,286047000.4,N
1545782555.3,286047000.9,N
1545782575.1,286047002.8,Y
1545782595.9,286047001.9,P
1545782615.7,286047002.1,P
1545782635.5,286047001.6,N
1545782655.4,286047003.0,Y
1545782675.2,286046999.7,P
1545782695.1,286047000.3,N
1545782696.0,286047000.3,N
1545782715.8,286047001.2,N
1545782735.6,286046998.8,N
1545782755.5,286046998.2,N
1545782775.3,286047002.7,N
1545782795.2,286047000.3,N
1545782815.9,286046998.6,N
1545782835.7,286047002.6,N
1545782855.6,286046998.5,N
1545782875.4,286047001.2,N
1545782895.2,286046999.3,N
1545782915.1,286046998.3,N
1545782916.0,286046998.3,N
1545782935.8,286047000.7,N
1545782955.7,286047000.3,N
1545782975.5,286046998.3,N
1545782995.3,286047002.4,N
1545783015.2,286047001.0,N
1545783035.0,286047001.2,N
1545783035.9,286047001.2,N
1545783055.8,286047001.0,N
1545783075.6,286046998.5,N
1545783095.4,286046998.2,N
1545783115.3,286046999.0,N
1545783135.1,286046998.9,N
1545783155.8,286047000.8,N
1545783175.7,286046996.8,N
1545783195.5,286046997.6,N
1545783215.4,286046994.9,Y
1545783235.2,286046997.7,P
1545783255.0,286046999.5,N
1545783255.9,286046999.5,N
1545783275.8,286046996.7,Y
1545783295.6,286046998.7,P
1545783315.5,286046999.1,P
1545783335.3,286046996.9,P
1545783355.1,286046998.7,N
1545783375.9,286046998.7,N
1545783395.7,286046998.4,N
1545783415.5,286047000.8,N
1545783435.4,286046998.2,N
1545783455.2,286047001.2,N
1545783475.0,286046999.5,N
1545783476.0,286046999.5,N
1545783495.8,286046997.0,N
1545783515.6,286046997.0,N
1545783535.5,286046998.7,N
1545783555.3,286046998.2,N
1545783575.1,286046998.3,N
1545783595.9,286046998.6,N
1545783615.7,286046997.7,N
1545783635.5,286046997.2,N
1545783655.4,286046997.7,N
1545783675.2,286046998.7,N
1545783695.1,286047001.2,N
1545783696.0,286047001.2,N
1545783715.8,286047001.2,N
1545783735.6,286047001.1,N
1545783755.5,286047000.8,N
1545783775.3,286046999.7,N
1545783795.1,286047000.4,N
1545783815.9,286047000.9,N
1545783835.7,286046998.1,N
1545783855.6,286047001.2,N
1545783875.4,286046998.6,N
1545783895.2,286047000.6,N
1545783915.1,286046999.7,N
1545783916.0,286046999.7,N
1545783935.8,286047001.4,N
1545783955.6,286047002.1,N
1545783975.5,286047002.7,N
1545783995.3,286046999.9,N
1545784015.2,286047000.6,N
1545784035.9,286047000.3,N
1545784055.7,286046998.1,N
1545784075.6,286047001.2,N
1545784095.4,286047001.0,N
1545784115.2,286047000.6,N
1545784135.1,286047001.2,N
1545784136.0,286047001.2,N
1545784155.8,286047000.2,N
1545784175.7,286047001.7,N
1545784195.5,286047002.3,N
1545784215.3,286047002.2,N
1545784235.2,286047000.0,N
1545784255.0,286047002.5,N
1545784255.9,286047002.5,N
1545784275.7,286047002.6,N
1545784295.6,286047004.3,Y
1545784315.4,286047001.8,P
1545784335.3,286047002.8,P
1545784355.1,286047002.5,P
1545784356.0,286047002.5,Y
1545784375.8,286046998.5,P
1545784395.7,286046996.5,N
1545784415.5,286046996.8,N
1545784435.4,286046997.5,N
1545784455.2,286046998.0,N
1545784475.0,286046996.3,N
1545784475.9,286046996.3,N
1545784495.8,286046995.7,N
1545784515.6,286046995.0,N
1545784535.5,286046995.7,N
1545784555.3,286046996.2,N
1545784575.1,286046997.4,N
1545784595.9,286046995.7,N
1545784615.7,286046993.3,Y
1545784635.5,286046999.2,P
1545784655.4,286046999.5,N
1545784675.2,286046998.9,N
1545784695.1,286046998.1,N
1545784696.0,286046998.1,N
1545784715.8,286047000.2,N
1545784735.6,286047001.2,N
1545784755.5,286047000.8,N
1545784775.3,286047000.6,N
1545784795.1,286046999.3,N
1545784815.9,286047001.1,N
1545784835.7,286046998.8,N
1545784855.6,286046999.2,N
1545784875.4,286046999.6,N
1545784895.2,286046999.4,N
1545784915.1,286046999.5,N
1545784916.0,286046999.5,N
1545784935.8,286046998.3,N
1545784955.6,286046999.3,N
1545784975.5,286047001.2,N
1545784995.3,286047001.2,N
1545785015.1,286047000.9,N
1545785035.9,286046998.2,N
1545785055.7,286046996.5,Y
1545785075.6,286046997.2,P
1545785095.4,286046997.4,N
1545785115.2,286046996.8,P
1545785135.1,286046999.6,N
1545785136.0,286046999.6,N
1545785155.8,286046998.8,N
1545785175.7,286047000.5,N
1545785195.5,286047000.8,N
1545785215.3,286046998.6,N
1545785235.2,286047000.8,N
1545785255.9,286047002.2,N
1545785275.7,286047001.5,N
1545785295.6,286047002.4,N
1545785315.4,286047000.2,N
1545785335.3,286046999.7,N
1545785355.1,286047002.5,N
1545785356.0,286047002.5,N
1545785375.8,286047002.6,N
1545785395.7,286047002.7,N
1545785415.5,286046999.7,N
1545785435.3,286047003.1,N
1545785455.2,286047002.1,N
1545785475.0,286047003.8,N
1545785475.9,286047003.8,N
1545785495.8,286047002.2,N
1545785515.6,286047001.7,N
1545785535.4,286047003.7,N
1545785555.3,286047004.2,N
1545785575.1,286047001.4,N
1545785576.0,286047001.4,N
1545785595.8,286047002.1,N
1545785615.7,286047003.9,N
1545785635.5,286047004.4,N
1545785655.3,286047001.5,N
1545785675.2,286047002.0,N
1545785695.0,286047001.0,N
1545785695.9,286047001.0,N
1545785715.8,286047000.1,N
1545785735.6,286047002.0,N
1545785755.4,286047000.3,N
1545785775.3,286046999.7,N
1545785795.1,286047002.7,N
1545785815.8,286047002.1,N
1545785835.7,286047002.3,N
1545785855.5,286046999.8,N
1545785875.4,286046999.8,N
1545785895.2,286047000.9,N
1545785915.0,286047001.1,N
1545785915.9,286047001.1,N
1545785935.8,286047000.1,N
1545785955.6,286047002.8,N
1545785975.4,286047000.9,N
1545785995.3,286046999.7,N
